London, United Kingdom

10:17 PM BST on August 28, 2016 (GMT +0100)
Heathrow

Weather History for EGLL - December, 2010

Change the Weather History Date:

Monday, December 6, 2010

  Actual Average Record
Temperature  
Mean Temperature 28 °F -  
Max Temperature 30 °F 45 °F 59 °F (2007)
Min Temperature 26 °F 36 °F 24 °F (1998)
Degree Days  
Heating Degree Days 37    
Moisture  
Dew Point 28 °F    
Average Humidity 96    
Maximum Humidity 100    
Minimum Humidity 89    
Precipitation  
Precipitation 0.00 in - - ()
Sea Level Pressure  
Sea Level Pressure 29.62 in    
Wind  
Wind Speed 3 mph ()    
Max Wind Speed 6 mph    
Max Gust Speed -    
Visibility 1.5 miles    
Events Fog    
Averages and records for this station are not official NWS values.
T = Trace of Precipitation, MM = Missing Value Source: Averaged Metar Reports

Daily Weather History Graph

Daily Weather History Graph

Search for Another Location

Airport or City:

Trip Planner

Search our weather history database for the weather conditions in past years. The results will help you decide how hot, cold, wet, or windy it might be!

Date:

Astronomy

Dec. 06, 2010 Rise Set
Actual Time 7:51 AM GMT 3:54 PM GMT
Civil Twilight 7:11 AM GMT 4:33 PM GMT
Nautical Twilight 6:29 AM GMT 5:16 PM GMT
Astronomical Twilight 5:48 AM GMT 5:56 PM GMT
Moon 8:44 AM GMT (12/6) 4:26 PM GMT (12/6)
Length of Visible Light 9h 21m
Length of Day
8h 02m
New Moon, 1% of the Moon is Illuminated
Dec 6
New Moon
Dec 13
First Quarter
Dec 21
Full
Dec 28
Last Quarter
Jan 4
New

Hourly Weather History & Observations

Time (GMT) Temp. Windchill Dew Point Humidity Pressure Visibility Wind Dir Wind Speed Gust Speed Precip Events Conditions
12:20 AM 28.4 °F - 28.4 °F 100% 29.65 in 0.1 mi Calm Calm - N/A Fog Light Freezing Fog
12:50 AM 28.4 °F - 28.4 °F 100% 29.65 in 0.1 mi Variable 2.3 mph - N/A Fog Light Freezing Fog
1:20 AM 28.4 °F 23.3 °F 28.4 °F 100% 29.62 in 0.2 mi North 4.6 mph - N/A Fog Light Freezing Fog
1:50 AM 28.4 °F - 28.4 °F 100% 29.62 in 0.2 mi Variable 2.3 mph - N/A Fog Light Freezing Fog
2:20 AM 28.4 °F - 28.4 °F 100% 29.62 in 0.2 mi NW 2.3 mph - N/A Fog Light Freezing Fog
2:50 AM 28 °F - 28 °F 98% 29.64 in 1 mi NE 2.3 mph - - Fog Fog
2:50 AM 28.4 °F - 28.4 °F 100% 29.62 in 0.3 mi Variable 2.3 mph - N/A Fog Light Freezing Fog
3:20 AM 28.4 °F - 28.4 °F 100% 29.62 in 0.5 mi Variable 2.3 mph - N/A Fog Light Freezing Fog
3:50 AM 28.4 °F 23.3 °F 26.6 °F 93% 29.62 in 1.0 mi North 4.6 mph - N/A   Mostly Cloudy
4:20 AM 28.4 °F 24.6 °F 26.6 °F 93% 29.62 in 1.4 mi Variable 3.5 mph - N/A   Mostly Cloudy
4:50 AM 28.4 °F - 26.6 °F 93% 29.62 in 1.2 mi NW 2.3 mph - N/A   Mostly Cloudy
5:20 AM 28.4 °F 24.6 °F 26.6 °F 93% 29.62 in 1.2 mi Variable 3.5 mph - N/A   Mostly Cloudy
5:50 AM 27 °F - 27 °F 98% 29.62 in 2 mi NNW 4.6 mph - -   Mist
5:50 AM 26.6 °F 22.6 °F 26.6 °F 100% 29.62 in 0.9 mi Variable 3.5 mph - N/A   Mostly Cloudy
6:20 AM 26.6 °F 22.6 °F 26.6 °F 100% 29.62 in 0.9 mi Variable 3.5 mph - N/A   Mostly Cloudy
6:50 AM 26.6 °F 22.6 °F 26.6 °F 100% 29.59 in 1.2 mi Variable 3.5 mph - N/A   Mostly Cloudy
7:20 AM 26.6 °F 21.2 °F 26.6 °F 100% 29.59 in 1.2 mi NNW 4.6 mph - N/A   Mostly Cloudy
7:50 AM 26.6 °F 21.2 °F 26.6 °F 100% 29.62 in 0.5 mi North 4.6 mph - N/A Fog Light Freezing Fog
8:20 AM 26.6 °F 22.6 °F 26.6 °F 100% 29.62 in 0.5 mi Variable 3.5 mph - N/A Fog Light Freezing Fog
8:50 AM 27 °F - 26 °F 96% 29.63 in 1 mi North 5.8 mph - -   Mist
8:50 AM 26.6 °F 21.2 °F 26.6 °F 100% 29.62 in 0.5 mi North 4.6 mph - N/A Fog Light Freezing Fog
9:20 AM 26.6 °F 21.2 °F 26.6 °F 100% 29.62 in 0.5 mi North 4.6 mph - N/A Fog Light Freezing Fog
9:50 AM 26.6 °F 22.6 °F 26.6 °F 100% 29.62 in 0.4 mi Variable 3.5 mph - N/A Fog Light Freezing Fog
10:20 AM 26.6 °F 21.2 °F 26.6 °F 100% 29.62 in 0.6 mi ENE 4.6 mph - N/A Fog Light Freezing Fog
10:50 AM 28.4 °F 23.3 °F 26.6 °F 93% 29.62 in 0.7 mi NE 4.6 mph - N/A   Mostly Cloudy
11:20 AM 28.4 °F 23.3 °F 26.6 °F 93% 29.62 in 0.7 mi NE 4.6 mph - N/A   Mostly Cloudy
11:50 AM 28 °F - 28 °F 98% 29.62 in 2 mi NNE 4.6 mph - -   Mist
11:50 AM 28.4 °F 23.3 °F 26.6 °F 93% 29.62 in 0.9 mi North 4.6 mph - N/A   Mostly Cloudy
12:20 PM 28.4 °F 24.6 °F 28.4 °F 100% 29.59 in 1.4 mi Variable 3.5 mph - N/A   Mostly Cloudy
12:50 PM 30.2 °F 26.7 °F 28.4 °F 93% 29.59 in 1.6 mi Variable 3.5 mph - N/A   Mostly Cloudy
1:20 PM 30.2 °F 24.3 °F 28.4 °F 93% 29.59 in 1.6 mi East 5.8 mph - N/A   Mostly Cloudy
1:50 PM 30.2 °F - 28.4 °F 93% 29.59 in 1.7 mi Variable 2.3 mph - N/A   Haze
2:20 PM 30.2 °F 26.7 °F 28.4 °F 93% 29.59 in 1.6 mi Variable 3.5 mph - N/A   Mostly Cloudy
2:50 PM 31 °F - 29 °F 92% 29.59 in 3 mi NNE 3.5 mph - -   Mist
2:50 PM 30.2 °F 24.3 °F 28.4 °F 93% 29.59 in 1.6 mi East 5.8 mph - N/A   Overcast
3:20 PM 30.2 °F 25.4 °F 28.4 °F 93% 29.59 in 1.6 mi NE 4.6 mph - N/A   Overcast
3:50 PM 30.2 °F 26.7 °F 28.4 °F 93% 29.59 in 1.6 mi Variable 3.5 mph - N/A   Overcast
4:20 PM 30.2 °F 24.3 °F 28.4 °F 93% 29.59 in 1.2 mi North 5.8 mph - N/A   Haze
4:50 PM 30.2 °F 25.4 °F 28.4 °F 93% 29.59 in 1.9 mi North 4.6 mph - N/A   Overcast
5:20 PM 30.2 °F 25.4 °F 28.4 °F 93% 29.62 in 1.9 mi North 4.6 mph - N/A   Overcast
5:50 PM 30 °F - 28 °F 91% 29.62 in 3 mi NNE 4.6 mph - -   Mist
5:50 PM 30.2 °F 25.4 °F 28.4 °F 93% 29.62 in - North 4.6 mph - N/A   Overcast
6:20 PM 30.2 °F 24.3 °F 28.4 °F 93% 29.62 in 1.9 mi North 5.8 mph - N/A   Overcast
6:50 PM 28.4 °F 23.3 °F 28.4 °F 100% 29.62 in - NNE 4.6 mph - N/A   Overcast
7:20 PM 28.4 °F 23.3 °F 28.4 °F 100% 29.62 in - NE 4.6 mph - N/A   Scattered Clouds
7:50 PM 30.2 °F 26.7 °F 28.4 °F 93% 29.62 in 3.1 mi Variable 3.5 mph - N/A   Scattered Clouds
8:20 PM 30.2 °F 26.7 °F 28.4 °F 93% 29.62 in 3.1 mi NE 3.5 mph - N/A   Mostly Cloudy
8:50 PM 30 °F - 28 °F 89% 29.63 in 5 mi North 3.5 mph - -   Light Haze
8:50 PM 30.2 °F 25.4 °F 28.4 °F 93% 29.62 in 3.7 mi North 4.6 mph - N/A   Mostly Cloudy
9:20 PM 30.2 °F 26.7 °F 28.4 °F 93% 29.62 in 3.7 mi Variable 3.5 mph - N/A   Mostly Cloudy
9:50 PM 30.2 °F 26.7 °F 28.4 °F 93% 29.62 in 3.7 mi Variable 3.5 mph - N/A   Mostly Cloudy
10:20 PM 28.4 °F 23.3 °F 26.6 °F 93% 29.62 in 3.1 mi NNW 4.6 mph - N/A   Mostly Cloudy
10:50 PM 28.4 °F 23.3 °F 26.6 °F 93% 29.62 in 2.8 mi North 4.6 mph - N/A   Mostly Cloudy
11:20 PM 28.4 °F 23.3 °F 26.6 °F 93% 29.65 in - North 4.6 mph - N/A   Mostly Cloudy
11:50 PM 28.4 °F 22.2 °F 26.6 °F 93% 29.65 in 0.6 mi North 5.8 mph - N/A Fog Light Freezing Fog